| time (UTC) | temp F | wind direction | speed knots | gust knots | rain 1hr in | rain 24hr in | rain mn in | humidity % | barometer mb |
| 20260903163044 | 58 | 190 | 3.5 | 6.1 | 0.00 | 0.01 | 0.00 | 81 | 1011.2 |
| 20260903161539 | 57 | 188 | 5.2 | 7.8 | 0.00 | 0.01 | 0.00 | 82 | 1010.9 |
| 20260903160040 | 57 | 196 | 2.6 | 6.1 | 0.00 | 0.01 | 0.00 | 85 | 1010.9 |
| 20260903154544 | 55 | 195 | 2.6 | 4.3 | 0.00 | 0.01 | 0.00 | 87 | 1011.1 |
| 20260903153044 | 55 | 195 | 1.7 | 5.2 | 0.00 | 0.01 | 0.00 | 87 | 1011.0 |
| 20260903151558 | 55 | 195 | 3.5 | 6.1 | 0.00 | 0.01 | 0.00 | 88 | 1011.0 |
| 20260903150047 | 54 | 198 | 3.5 | 7.0 | 0.00 | 0.01 | 0.00 | 90 | 1011.0 |
| 20260903144538 | 53 | 197 | 3.5 | 6.1 | 0.00 | 0.01 | 0.00 | 91 | 1010.9 |
| 20260903143040 | 52 | 197 | 0.0 | 2.6 | 0.00 | 0.01 | 0.00 | 92 | 1010.7 |
| 20260903141542 | 51 | 0 | 0.0 | 1.7 | 0.00 | 0.01 | 0.00 | 92 | 1010.7 |
| 20260903140039 | 51 | 0 | 0.9 | 2.6 | 0.00 | 0.01 | 0.00 | 91 | 1010.5 |
| 20260903134537 | 51 | 197 | 2.6 | 3.5 | 0.00 | 0.01 | 0.00 | 92 | 1010.5 |
| 20260903133039 | 51 | 197 | 0.9 | 4.3 | 0.00 | 0.01 | 0.00 | 91 | 1010.3 |
| 20260903131538 | 51 | 0 | 0.0 | 4.3 | 0.00 | 0.01 | 0.00 | 91 | 1010.1 |
| 20260903130042 | 51 | 197 | 4.3 | 7.8 | 0.00 | 0.01 | 0.00 | 91 | 1009.9 |
| 20260903124542 | 52 | 202 | 5.2 | 8.7 | 0.00 | 0.01 | 0.00 | 91 | 1009.7 |
| 20260903123044 | 52 | 207 | 3.5 | 5.2 | 0.00 | 0.01 | 0.00 | 91 | 1009.6 |
| 20260903121537 | 52 | 208 | 3.5 | 6.1 | 0.00 | 0.01 | 0.00 | 90 | 1009.7 |
| 20260903120046 | 53 | 207 | 4.3 | 7.8 | 0.00 | 0.01 | 0.00 | 90 | 1009.6 |
| 20260903114542 | 53 | 0 | 0.0 | 3.5 | 0.00 | 0.01 | 0.00 | 90 | 1009.5 |
| 20260903113044 | 53 | 205 | 0.9 | 4.3 | 0.00 | 0.01 | 0.00 | 90 | 1009.5 |
| 20260903111536 | 54 | 202 | 4.3 | 7.0 | 0.00 | 0.01 | 0.00 | 90 | 1009.3 |
| 20260903110041 | 54 | 200 | 3.5 | 7.0 | 0.00 | 0.01 | 0.00 | 89 | 1009.1 |
| 20260903104540 | 55 | 198 | 4.3 | 7.0 | 0.00 | 0.01 | 0.00 | 89 | 1008.9 |
| 20260903103044 | 55 | 188 | 6.1 | 10.4 | 0.00 | 0.01 | 0.00 | 90 | 1008.9 |
| 20260903101544 | 55 | 174 | 4.3 | 9.6 | 0.00 | 0.01 | 0.00 | 91 | 1009.0 |
| 20260903100044 | 55 | 173 | 3.5 | 8.7 | 0.00 | 0.01 | 0.00 | 92 | 1009.0 |
| 20260903094555 | 55 | 163 | 3.5 | 6.1 | 0.00 | 0.01 | 0.00 | 92 | 1008.9 |
| 20260903093045 | 56 | 163 | 4.3 | 6.1 | 0.00 | 0.01 | 0.00 | 92 | 1008.9 |
| 20260903091544 | 56 | 163 | 5.2 | 8.7 | 0.00 | 0.01 | 0.00 | 92 | 1008.7 |
| 20260903090039 | 56 | 163 | 5.2 | 8.7 | 0.00 | 0.01 | 0.00 | 92 | 1008.7 |
| 20260903084537 | 56 | 163 | 6.1 | 9.6 | 0.00 | 0.01 | 0.00 | 92 | 1008.7 |
| 20260903083043 | 56 | 163 | 3.5 | 7.0 | 0.00 | 0.01 | 0.00 | 92 | 1008.5 |
| 20260903081540 | 56 | 163 | 5.2 | 9.6 | 0.00 | 0.01 | 0.00 | 92 | 1008.3 |
| 20260903080055 | 57 | 170 | 3.5 | 6.1 | 0.00 | 0.01 | 0.00 | 91 | 1008.6 |
| 20260903074539 | 57 | 170 | 3.5 | 6.1 | 0.00 | 0.01 | 0.00 | 91 | 1008.5 |
| 20260903073215 | 57 | 170 | 3.5 | 7.0 | 0.00 | 0.01 | 0.00 | 90 | 1008.4 |
| 20260903071538 | 57 | 170 | 5.2 | 7.8 | 0.00 | 0.01 | 0.00 | 89 | 1008.3 |
| 20260903070044 | 57 | 175 | 3.5 | 7.0 | 0.00 | 0.01 | 0.00 | 88 | 1008.2 |
| 20260903064539 | 57 | 177 | 2.6 | 6.1 | 0.00 | 0.01 | 0.01 | 87 | 1008.2 |
| 20260903063039 | 58 | 177 | 5.2 | 10.4 | 0.00 | 0.01 | 0.01 | 87 | 1008.1 |
| 20260903061537 | 58 | 173 | 7.8 | 11.3 | 0.00 | 0.01 | 0.01 | 87 | 1008.0 |
| 20260903060039 | 58 | 166 | 7.0 | 12.2 | 0.00 | 0.01 | 0.01 | 87 | 1008.0 |
| 20260903054538 | 58 | 174 | 7.8 | 13.0 | 0.00 | 0.01 | 0.01 | 88 | 1008.0 |
| 20260903053036 | 58 | 167 | 7.8 | 13.0 | 0.00 | 0.01 | 0.01 | 90 | 1008.1 |
| 20260903051547 | 58 | 166 | 5.2 | 8.7 | 0.00 | 0.01 | 0.01 | 90 | 1008.2 |
| 20260903050045 | 59 | 167 | 4.3 | 7.8 | 0.00 | 0.01 | 0.01 | 90 | 1008.1 |
| 20260903044540 | 59 | 169 | 5.2 | 8.7 | 0.00 | 0.01 | 0.01 | 89 | 1008.0 |
| 20260903043042 | 59 | 173 | 5.2 | 7.8 | 0.00 | 0.01 | 0.01 | 89 | 1008.1 |
| 20260903041540 | 59 | 184 | 2.6 | 5.2 | 0.00 | 0.01 | 0.01 | 88 | 1008.3 |
| 20260903040051 | 59 | 186 | 3.5 | 6.1 | 0.00 | 0.01 | 0.01 | 88 | 1008.3 |
| 20260903034538 | 59 | 189 | 2.6 | 5.2 | 0.00 | 0.01 | 0.01 | 87 | 1008.2 |
| 20260903033039 | 59 | 192 | 2.6 | 6.1 | 0.01 | 0.01 | 0.01 | 87 | 1008.1 |
| 20260903031537 | 59 | 208 | 1.7 | 3.5 | 0.01 | 0.01 | 0.01 | 85 | 1008.0 |
| 20260903030043 | 59 | 208 | 1.7 | 4.3 | 0.01 | 0.01 | 0.01 | 83 | 1007.8 |
| 20260903024543 | 59 | 209 | 3.5 | 8.7 | 0.01 | 0.01 | 0.01 | 82 | 1007.9 |
| 20260903023038 | 60 | 219 | 5.2 | 10.4 | 0.00 | 0.00 | 0.00 | 79 | 1007.9 |
| 20260903021541 | 61 | 217 | 5.2 | 8.7 | 0.00 | 0.00 | 0.00 | 77 | 1007.8 |
| 20260903020041 | 61 | 209 | 5.2 | 8.7 | 0.00 | 0.00 | 0.00 | 75 | 1007.8 |
| 20260903014542 | 62 | 216 | 6.1 | 11.3 | 0.00 | 0.00 | 0.00 | 74 | 1007.7 |
| 20260903013042 | 62 | 225 | 7.0 | 13.9 | 0.00 | 0.00 | 0.00 | 73 | 1007.7 |
| 20260903011547 | 62 | 229 | 6.1 | 10.4 | 0.00 | 0.00 | 0.00 | 73 | 1007.7 |
| 20260903010043 | 62 | 215 | 7.8 | 13.9 | 0.00 | 0.00 | 0.00 | 71 | 1007.7 |
| 20260903004536 | 62 | 197 | 6.1 | 13.9 | 0.00 | 0.00 | 0.00 | 73 | 1007.4 |
| 20260903003036 | 63 | 238 | 7.8 | 16.5 | 0.00 | 0.00 | 0.00 | 69 | 1007.5 |
| 20260903001556 | 65 | 222 | 7.8 | 14.8 | 0.00 | 0.00 | 0.00 | 64 | 1007.3 |
| 20260903000037 | 65 | 228 | 8.7 | 20.9 | 0.00 | 0.00 | 0.00 | 62 | 1007.0 |
| 20260902234537 | 66 | 238 | 11.3 | 16.5 | 0.00 | 0.00 | 0.00 | 62 | 1006.9 |
| 20260902233039 | 66 | 232 | 10.4 | 15.6 | 0.00 | 0.00 | 0.00 | 65 | 1006.9 |
| 20260902231539 | 65 | 232 | 10.4 | 22.6 | 0.00 | 0.00 | 0.00 | 66 | 1006.8 |
| 20260902230039 | 65 | 245 | 11.3 | 24.3 | 0.00 | 0.00 | 0.00 | 66 | 1006.9 |
| 20260902224542 | 67 | 207 | 15.6 | 26.1 | 0.00 | 0.00 | 0.00 | 64 | 1006.8 |
| 20260902223040 | 73 | 169 | 3.5 | 6.1 | 0.00 | 0.00 | 0.00 | 54 | 1005.8 |
| 20260902221544 | 74 | 169 | 3.5 | 7.8 | 0.00 | 0.00 | 0.00 | 49 | 1005.7 |
| 20260902220050 | 74 | 158 | 0.9 | 5.2 | 0.00 | 0.00 | 0.00 | 50 | 1005.8 |
| 20260902214540 | 74 | 158 | 3.5 | 7.0 | 0.00 | 0.00 | 0.00 | 45 | 1005.8 |
| 20260902213046 | 75 | 164 | 5.2 | 9.6 | 0.00 | 0.00 | 0.00 | 45 | 1006.0 |
| 20260902211541 | 75 | 175 | 4.3 | 7.8 | 0.00 | 0.00 | 0.00 | 48 | 1006.0 |
| 20260902210039 | 74 | 166 | 6.1 | 10.4 | 0.00 | 0.00 | 0.00 | 47 | 1006.2 |
| 20260902204538 | 74 | 203 | 4.3 | 8.7 | 0.00 | 0.00 | 0.00 | 48 | 1006.4 |
| 20260902203042 | 73 | 249 | 4.3 | 8.7 | 0.00 | 0.00 | 0.00 | 51 | 1006.5 |
| 20260902201539 | 73 | 221 | 2.6 | 9.6 | 0.00 | 0.00 | 0.00 | 51 | 1006.6 |
| 20260902200039 | 72 | 217 | 4.3 | 13.0 | 0.00 | 0.00 | 0.00 | 51 | 1006.8 |
| 20260902194543 | 72 | 205 | 7.0 | 13.0 | 0.00 | 0.00 | 0.00 | 53 | 1007.1 |
| 20260902193038 | 72 | 205 | 7.8 | 13.9 | 0.00 | 0.00 | 0.00 | 51 | 1007.2 |
| 20260902191550 | 71 | 205 | 7.8 | 13.9 | 0.00 | 0.00 | 0.00 | 56 | 1007.3 |
| 20260902190052 | 70 | 205 | 6.1 | 10.4 | 0.00 | 0.00 | 0.00 | 57 | 1007.6 |
| 20260902184539 | 69 | 211 | 6.1 | 12.2 | 0.00 | 0.00 | 0.00 | 59 | 1007.7 |
| 20260902183041 | 69 | 200 | 7.0 | 12.2 | 0.00 | 0.00 | 0.00 | 57 | 1007.9 |
| 20260902181537 | 68 | 216 | 7.0 | 13.0 | 0.00 | 0.00 | 0.00 | 60 | 1008.1 |
| 20260902180042 | 67 | 194 | 7.0 | 12.2 | 0.00 | 0.00 | 0.00 | 64 | 1008.1 |
| 20260902174537 | 66 | 200 | 7.0 | 11.3 | 0.00 | 0.00 | 0.00 | 65 | 1008.0 |
| 20260902173041 | 66 | 196 | 7.0 | 10.4 | 0.00 | 0.00 | 0.00 | 66 | 1008.1 |
| 20260902171600 | 65 | 187 | 4.3 | 10.4 | 0.00 | 0.00 | 0.00 | 67 | 1008.1 |
| 20260902170103 | 64 | 201 | 6.1 | 9.6 | 0.00 | 0.00 | 0.00 | 68 | 1008.0 |
| 20260902164541 | 64 | 193 | 5.2 | 9.6 | 0.00 | 0.00 | 0.00 | 68 | 1008.2 |